#timestamp,LO_Frequency,Hit,StdDev 
1585234815.6,286047000.7,N
1585234835.4,286046998.5,N
1585234855.3,286046997.8,N
1585234875.1,286046995.0,Y
1585234895.9,286046997.7,P
1585234915.7,286046997.6,N
1585234935.5,286046995.0,P
1585234955.4,286046998.0,N
1585234975.2,286046997.7,N
1585234995.0,286046994.9,Y
1585234995.9,286046994.9,P
1585235015.8,286046999.5,N
1585235035.6,286046999.6,N
1585235055.5,286046997.3,N
1585235075.3,286046997.4,N
1585235095.1,286046996.6,N
1585235115.9,286046999.0,N
1585235135.7,286046998.8,N
1585235155.5,286046998.4,N
1585235175.4,286046999.3,N
1585235195.2,286046999.3,N
1585235215.1,286046998.9,N
1585235216.0,286046998.9,N
1585235235.8,286046996.9,N
1585235255.6,286046997.4,N
1585235275.5,286046995.2,Y
1585235295.3,286046999.6,P
1585235315.2,286046995.3,P
1585235335.9,286046997.5,N
1585235355.7,286046998.0,N
1585235375.6,286046996.2,N
1585235395.4,286046996.2,N
1585235415.3,286046995.1,Y
1585235435.1,286046999.6,P
1585235436.0,286046999.6,N
1585235455.8,286046999.5,N
1585235475.7,286046999.1,N
1585235495.5,286046999.5,N
1585235515.3,286046999.4,N
1585235535.2,286046996.6,Y
1585235555.0,286046999.6,P
1585235555.9,286046999.6,N
1585235575.8,286046998.7,P
1585235595.6,286046997.1,Y
1585235615.5,286046996.7,P
1585235635.3,286046997.8,N
1585235655.1,286046997.5,N
1585235675.9,286046997.8,N
1585235695.7,286046997.1,Y
1585235715.6,286046998.1,P
1585235735.4,286046998.2,P
1585235755.2,286046998.5,P
1585235775.1,286046999.5,N
1585235776.0,286046999.5,N
1585235795.8,286046999.5,N
1585235815.6,286047001.0,N
1585235835.5,286046998.9,N
1585235855.3,286047000.8,N
1585235875.2,286046998.7,N
1585235895.9,286046998.0,N
1585235915.7,286046996.2,Y
1585235935.6,286046995.4,P
1585235955.4,286046995.1,N
1585235975.3,286046996.1,N
1585235995.1,286046994.9,Y
1585235996.0,286046994.9,P
1585236015.8,286047000.7,N
1585236035.7,286047000.9,N
1585236055.5,286047002.8,N
1585236075.4,286047002.0,N
1585236095.2,286047002.3,N
1585236115.0,286047002.3,N
1585236115.9,286047002.3,N
1585236135.8,286047002.8,N
1585236155.6,286047002.7,N
1585236175.5,286047002.2,N
1585236195.3,286046999.9,N
1585236215.1,286047002.2,N
1585236235.9,286047001.7,N
1585236255.7,286047004.3,N
1585236275.5,286047003.1,N
1585236295.4,286047003.0,N
1585236315.2,286047003.0,N
1585236335.1,286047001.8,N
1585236336.0,286047001.8,N
1585236355.8,286047001.5,N
1585236375.6,286047003.2,N
1585236395.5,286047004.0,N
1585236415.3,286047004.0,N
1585236435.2,286047004.0,N
1585236455.9,286047003.6,N
1585236475.7,286047002.9,N
1585236495.6,286047003.1,N
1585236515.4,286047003.8,N
1585236535.2,286047003.5,N
1585236555.1,286047003.5,N
1585236556.0,286047003.5,Y
1585236575.8,286046999.9,P
1585236595.7,286047001.0,N
1585236615.5,286046998.2,N
1585236635.4,286046998.6,N
1585236655.2,286047002.7,N
1585236675.0,286047002.6,N
1585236675.9,286047011.9,Y
1585236695.8,286046999.8,P
1585236715.6,286047000.2,N
1585236735.5,286047001.8,P
1585236755.3,286047001.4,N
1585236775.1,286047003.8,Y
1585236795.9,286047003.8,P
1585236815.7,286047005.9,P
1585236835.6,286047004.2,N
1585236855.4,286047005.9,Y
1585236875.2,286047000.1,P
1585236895.1,286047000.5,N
1585236896.0,286047000.5,N
1585236915.8,286046999.7,N
1585236935.7,286047002.4,N
1585236955.5,286046999.8,N
1585236975.3,286047000.4,N
1585236995.2,286047001.5,N
1585237015.0,286047002.2,N
1585237015.9,286047002.2,N
1585237035.8,286047001.9,N
1585237055.6,286047002.7,N
1585237075.4,286047003.8,Y
1585237095.3,286046999.9,P
1585237115.1,286046998.5,N
1585237135.8,286047001.1,N
1585237155.7,286047000.7,N
1585237175.5,286046998.5,N
1585237195.4,286047000.5,N
1585237215.2,286046998.1,N
1585237235.0,286047000.7,N
1585237235.9,286047000.7,N
1585237255.8,286047000.8,N
1585237275.6,286047000.7,N
1585237295.5,286047000.7,N
1585237315.3,286046998.9,N
1585237335.1,286046999.5,N
1585237355.9,286046998.5,N
1585237375.7,286046998.5,N
1585237395.5,286046999.2,N
1585237415.4,286046999.0,N
1585237435.2,286047000.0,N
1585237455.1,286046998.1,N
1585237456.0,286046998.1,N
1585237475.8,286046998.5,N
1585237495.6,286047000.3,N
1585237515.5,286046996.6,Y
1585237535.3,286046999.0,P
1585237555.2,286046999.5,N
1585237575.9,286047000.7,N
1585237595.7,286046998.1,Y
1585237615.6,286047000.4,P
1585237635.4,286047001.5,P
1585237655.3,286047000.3,N
1585237675.1,286046994.9,Y
1585237676.0,286046994.9,P
1585237695.8,286047000.4,N
1585237715.7,286046998.7,N
1585237735.5,286046998.7,N
1585237755.3,286046997.5,N
1585237775.2,286047000.7,N
1585237795.0,286047004.2,N
1585237795.9,286047004.2,N
1585237815.8,286047001.2,N
1585237835.6,286046998.1,N
1585237855.4,286047001.0,N
1585237875.3,286046999.7,N
1585237895.1,286047000.4,N
1585237915.9,286046999.8,N
1585237935.7,286047001.5,N
1585237955.5,286047001.4,N
1585237975.4,286047004.4,N
1585237995.2,286047001.3,N
1585238015.0,286046998.1,N
1585238015.9,286046998.1,N
1585238035.8,286046998.5,N
1585238055.6,286047000.0,N
1585238075.5,286047004.3,N
1585238095.3,286047013.4,Y
1585238115.1,286047018.6,P
1585238135.9,286047016.3,N
1585238155.7,286047015.6,N
1585238175.6,286047011.7,N
1585238195.4,286047006.5,N
1585238215.2,286047005.9,N
1585238235.1,286047003.5,N
1585238236.0,286047003.5,N
1585238255.8,286047001.6,N
1585238275.7,286047001.6,N
1585238295.5,286047000.1,N
1585238315.3,286047000.7,N
1585238335.2,286046999.7,N
1585238355.0,286047003.2,N
1585238355.9,286047003.2,N
1585238375.7,286047002.6,N
1585238395.6,286047002.6,N
